User: anonymous
Location: Unspecified
(0.0000°N, 0.0000°E)
Time: 07:22:03
(UTC+02:00)
Language:

Cosmos 773 Rocket - Orbit

View from above orbital plane
View from above orbital plane
View from above satellite
View from above satellite

Ground track
Ground track

The orbit data is extracted from the following two-line orbital elements,

1 08344U 75094B   14292.80969696  .00000420  00000-0  14470-3 0  5974
2 08344 074.0563 115.2686 0022895 260.9691 196.8771 14.38807805 45972
Epoch (UTC): 19 October 2014 19:25:57
Eccentricity: 0.0022895
inclination: 74.0563°
perigee height: 746 km
apogee height: 779 km
right ascension of ascending node: 115.2686°
argument of perigee: 260.9691°
revolutions per day: 14.38807805
mean anomaly at epoch: 196.8771°
orbit number at epoch: 4597

The dashed part of the orbit path shows where the satellite is in the earth's shadow,  

DLR